SBI163 URWW-UWKD

Flight info

Callsign SBI163
Flight time 1h 19m
Altitude 37000
Route RODUN R807 UROBO P135 DAFOS T789 SONUM
Aircraft B38M/M-SDE1FGHILORVWXY/HB1

Departure

Time 2026-05-07 18:55
Airport Volgograd International Airport (URWW)

Arrival

Time 2026-05-07 20:15
Airport Kazan International Airport (UWKD)
Time Latitude Longitude Altitude Speed Heading
2026-05-07 18:32 48.79042 44.35393 423 ft 0 kts 339°
2026-05-07 18:47 48.79028 44.35402 422 ft 2 kts 333°
2026-05-07 18:48 48.79014 44.35415 417 ft 2 kts 321°
2026-05-07 18:48 48.79004 44.35435 411 ft 2 kts 280°
2026-05-07 18:48 48.79005 44.35457 414 ft 1 kts 252°
2026-05-07 18:48 48.79006 44.35463 415 ft 0 kts 250°
2026-05-07 18:52 48.78996 44.35422 414 ft 11 kts 249°
2026-05-07 18:52 48.78957 44.35266 420 ft 18 kts 249°
2026-05-07 18:53 48.78911 44.35110 416 ft 16 kts 227°
2026-05-07 18:53 48.78861 44.35119 418 ft 11 kts 160°
2026-05-07 18:53 48.78756 44.35171 415 ft 17 kts 162°
2026-05-07 18:53 48.78693 44.35202 412 ft 11 kts 162°
2026-05-07 18:54 48.78674 44.35212 417 ft 0 kts 162°
2026-05-07 18:54 48.78652 44.35222 419 ft 10 kts 162°
2026-05-07 18:54 48.78546 44.35192 414 ft 22 kts 232°
2026-05-07 18:54 48.78524 44.35125 418 ft 7 kts 245°
2026-05-07 18:55 48.78501 44.35052 425 ft 18 kts 244°
2026-05-07 18:55 48.78315 44.34467 436 ft 103 kts 244°
2026-05-07 18:55 48.77894 44.33153 472 ft 170 kts 244°
2026-05-07 18:55 48.77377 44.31402 1102 ft 186 kts 248°
2026-05-07 18:56 48.76849 44.29588 2107 ft 193 kts 248°
2026-05-07 18:56 48.76227 44.27688 2777 ft 210 kts 246°
2026-05-07 18:56 48.75549 44.25628 3421 ft 227 kts 246°
2026-05-07 18:56 48.74842 44.23386 4029 ft 245 kts 251°
2026-05-07 18:57 48.74523 44.20799 4598 ft 259 kts 279°
2026-05-07 18:57 48.75220 44.18256 5211 ft 267 kts 314°
2026-05-07 18:57 48.76751 44.16823 6301 ft 259 kts 346°
2026-05-07 18:57 48.78540 44.16728 7164 ft 264 kts 14°
2026-05-07 18:58 48.80137 44.18064 8078 ft 266 kts 40°
2026-05-07 18:58 48.81580 44.19870 8918 ft 271 kts 32°
2026-05-07 18:58 48.83151 44.21458 9841 ft 273 kts 33°
2026-05-07 18:58 48.84736 44.23107 10560 ft 281 kts 33°
2026-05-07 18:59 48.86397 44.24835 11036 ft 298 kts 33°
2026-05-07 18:59 48.88160 44.26662 11401 ft 317 kts 33°
2026-05-07 18:59 48.90021 44.28595 11864 ft 331 kts 33°
2026-05-07 18:59 48.91936 44.30606 12599 ft 335 kts 34°
2026-05-07 19:00 48.93847 44.32652 13419 ft 338 kts 34°
2026-05-07 19:00 48.95777 44.34731 14143 ft 342 kts 34°
2026-05-07 19:00 48.97726 44.36846 14843 ft 346 kts 35°
2026-05-07 19:00 48.99691 44.38987 15527 ft 350 kts 34°
2026-05-07 19:01 49.01682 44.41158 16201 ft 354 kts 34°
2026-05-07 19:01 49.03690 44.43354 16845 ft 358 kts 34°
2026-05-07 19:01 49.05690 44.45543 16993 ft 359 kts 35°
2026-05-07 19:01 49.07717 44.47768 16997 ft 358 kts 35°
2026-05-07 19:02 49.09742 44.49995 17003 ft 358 kts 35°
2026-05-07 19:02 49.11772 44.52219 17462 ft 358 kts 35°
2026-05-07 19:02 49.13795 44.54460 18165 ft 362 kts 35°
2026-05-07 19:02 49.15860 44.56726 18647 ft 367 kts 35°
2026-05-07 19:03 49.17931 44.59012 19263 ft 369 kts 35°
2026-05-07 19:03 49.20026 44.61323 19781 ft 373 kts 35°
2026-05-07 19:03 49.22136 44.63655 20328 ft 376 kts 35°
2026-05-07 19:03 49.24267 44.66013 20861 ft 379 kts 35°
2026-05-07 19:04 49.26413 44.68392 21389 ft 383 kts 35°
2026-05-07 19:04 49.28577 44.70792 21913 ft 386 kts 35°
2026-05-07 19:04 49.30757 44.73213 22441 ft 389 kts 35°
2026-05-07 19:04 49.32958 44.75662 22947 ft 392 kts 35°
2026-05-07 19:05 49.35175 44.78130 23450 ft 396 kts 36°
2026-05-07 19:05 49.37407 44.80618 23888 ft 398 kts 36°
2026-05-07 19:05 49.39656 44.83128 24291 ft 401 kts 36°
2026-05-07 19:05 49.41923 44.85663 24701 ft 404 kts 36°
2026-05-07 19:06 49.44197 44.88210 25111 ft 407 kts 36°
2026-05-07 19:06 49.48798 44.93369 25895 ft 412 kts 36°
2026-05-07 19:06 49.51121 44.95980 26273 ft 415 kts 36°
2026-05-07 19:07 49.53456 44.98608 26658 ft 417 kts 36°
2026-05-07 19:07 49.55803 45.01253 27035 ft 420 kts 36°
2026-05-07 19:07 49.57371 45.03021 27278 ft 422 kts 36°
2026-05-07 19:07 49.60547 45.06609 27775 ft 425 kts 36°
2026-05-07 19:08 49.62128 45.08397 28022 ft 427 kts 36°
2026-05-07 19:08 49.64526 45.11112 28369 ft 429 kts 36°
2026-05-07 19:08 49.67038 45.13596 28692 ft 431 kts 24°
2026-05-07 19:08 49.69886 45.15062 29061 ft 433 kts 16°
2026-05-07 19:09 49.72787 45.16384 29333 ft 437 kts 17°
2026-05-07 19:09 49.75709 45.17700 29679 ft 439 kts 16°
2026-05-07 19:09 49.78651 45.19003 30016 ft 441 kts 16°
2026-05-07 19:09 49.81612 45.20306 30283 ft 443 kts 16°
2026-05-07 19:10 49.84581 45.21610 30557 ft 445 kts 16°
2026-05-07 19:10 49.87566 45.22923 30838 ft 447 kts 16°
2026-05-07 19:10 49.90568 45.24245 31117 ft 449 kts 16°
2026-05-07 19:10 49.93575 45.25570 31458 ft 449 kts 16°
2026-05-07 19:11 49.96572 45.26892 31862 ft 447 kts 16°
2026-05-07 19:11 49.99563 45.28214 32237 ft 447 kts 16°
2026-05-07 19:11 50.02571 45.29390 32613 ft 446 kts 12°
2026-05-07 19:11 50.05604 45.30371 32991 ft 445 kts 12°
2026-05-07 19:12 50.08582 45.31366 33352 ft 444 kts 12°
2026-05-07 19:12 50.11596 45.32388 33735 ft 443 kts 12°
2026-05-07 19:12 50.14606 45.33416 34082 ft 442 kts 12°
2026-05-07 19:12 50.17601 45.34442 34371 ft 442 kts 12°
2026-05-07 19:13 50.20608 45.35473 34632 ft 442 kts 12°
2026-05-07 19:13 50.23614 45.36506 34887 ft 442 kts 12°
2026-05-07 19:13 50.26421 45.37470 35132 ft 442 kts 12°
2026-05-07 19:13 50.29426 45.38506 35373 ft 443 kts 12°
2026-05-07 19:14 50.32432 45.39542 35617 ft 443 kts 12°
2026-05-07 19:14 50.35438 45.40580 35853 ft 443 kts 12°
2026-05-07 19:14 50.38452 45.41621 36087 ft 443 kts 12°
2026-05-07 19:14 50.41460 45.42663 36314 ft 443 kts 12°
2026-05-07 19:15 50.44472 45.43707 36531 ft 444 kts 12°
2026-05-07 19:15 50.47484 45.44753 36749 ft 444 kts 12°
2026-05-07 19:15 50.50506 45.45803 36930 ft 444 kts 12°
2026-05-07 19:15 50.53522 45.46852 36968 ft 444 kts 12°
2026-05-07 19:16 50.59548 45.48953 36966 ft 443 kts 12°
2026-05-07 19:16 50.65566 45.51056 36966 ft 443 kts 12°
2026-05-07 19:17 50.71583 45.53165 36965 ft 443 kts 12°
2026-05-07 19:17 50.77604 45.55282 36961 ft 443 kts 12°
2026-05-07 19:18 50.83620 45.57426 36962 ft 443 kts 12°
2026-05-07 19:18 50.89638 45.59583 36960 ft 443 kts 12°
2026-05-07 19:19 50.95631 45.61899 36944 ft 443 kts 19°
2026-05-07 19:19 51.01234 45.65984 36952 ft 444 kts 24°
2026-05-07 19:20 51.06852 45.70094 36951 ft 444 kts 24°
2026-05-07 19:20 51.12468 45.74194 36953 ft 444 kts 24°
2026-05-07 19:21 51.18086 45.78306 36949 ft 445 kts 24°
2026-05-07 19:21 51.23706 45.82431 36947 ft 445 kts 24°
2026-05-07 19:22 51.29332 45.86570 36944 ft 445 kts 24°
2026-05-07 19:22 51.34956 45.90720 36942 ft 446 kts 24°
2026-05-07 19:23 51.40555 45.94863 36943 ft 446 kts 24°
2026-05-07 19:23 51.46188 45.99040 36948 ft 446 kts 24°
2026-05-07 19:24 51.51853 46.03255 36953 ft 446 kts 24°
2026-05-07 19:24 51.57485 46.07456 36960 ft 446 kts 24°
2026-05-07 19:25 51.63084 46.11643 36970 ft 446 kts 24°
2026-05-07 19:25 51.68747 46.15891 36966 ft 446 kts 24°
2026-05-07 19:26 51.74337 46.20096 36967 ft 446 kts 24°
2026-05-07 19:26 51.79963 46.24338 36972 ft 446 kts 24°
2026-05-07 19:27 51.85596 46.28598 36961 ft 446 kts 24°
2026-05-07 19:27 51.91221 46.32864 36955 ft 447 kts 24°
2026-05-07 19:28 51.96846 46.37142 36946 ft 447 kts 24°
2026-05-07 19:28 52.02471 46.41432 36929 ft 447 kts 24°
2026-05-07 19:29 52.08098 46.45734 36933 ft 447 kts 24°
2026-05-07 19:29 52.13728 46.50052 36936 ft 447 kts 24°
2026-05-07 19:30 52.19352 46.54377 36944 ft 447 kts 24°
2026-05-07 19:30 52.24985 46.58721 36940 ft 447 kts 25°
2026-05-07 19:31 52.30608 46.63070 36945 ft 448 kts 25°
2026-05-07 19:31 52.36236 46.67435 36950 ft 448 kts 25°
2026-05-07 19:32 52.41861 46.71809 36956 ft 448 kts 25°
2026-05-07 19:32 52.47494 46.76203 36942 ft 448 kts 25°
2026-05-07 19:33 52.53119 46.80603 36946 ft 448 kts 25°
2026-05-07 19:33 52.58749 46.85020 36955 ft 449 kts 25°
2026-05-07 19:34 52.64380 46.89449 36948 ft 449 kts 25°
2026-05-07 19:34 52.70024 46.93902 36958 ft 449 kts 25°
2026-05-07 19:35 52.75661 46.98362 36957 ft 450 kts 25°
2026-05-07 19:35 52.81303 47.02839 36963 ft 450 kts 25°
2026-05-07 19:36 52.86944 47.07329 36952 ft 450 kts 25°
2026-05-07 19:36 52.92590 47.11835 36962 ft 450 kts 25°
2026-05-07 19:37 52.98224 47.16345 36961 ft 450 kts 25°
2026-05-07 19:37 53.03863 47.20871 36964 ft 450 kts 25°
2026-05-07 19:38 53.09495 47.25405 36954 ft 450 kts 25°
2026-05-07 19:38 53.15131 47.29957 36964 ft 450 kts 25°
2026-05-07 19:39 53.20765 47.34520 36966 ft 450 kts 25°
2026-05-07 19:39 53.26396 47.39093 36960 ft 450 kts 25°
2026-05-07 19:40 53.31995 47.43654 36965 ft 451 kts 25°
2026-05-07 19:40 53.37629 47.48257 36970 ft 450 kts 25°
2026-05-07 19:41 53.43259 47.52871 36960 ft 451 kts 25°
2026-05-07 19:41 53.48893 47.57502 36965 ft 451 kts 25°
2026-05-07 19:42 53.54521 47.62141 36968 ft 451 kts 26°
2026-05-07 19:42 53.60148 47.66794 36957 ft 451 kts 26°
2026-05-07 19:43 53.65776 47.71461 36959 ft 451 kts 26°
2026-05-07 19:43 53.71403 47.76141 36958 ft 451 kts 26°
2026-05-07 19:44 53.77023 47.80830 36962 ft 451 kts 26°
2026-05-07 19:44 53.82648 47.85536 36966 ft 451 kts 26°
2026-05-07 19:45 53.88266 47.90252 36966 ft 451 kts 26°
2026-05-07 19:45 53.93883 47.94980 36963 ft 451 kts 26°
2026-05-07 19:46 53.99496 47.99720 36959 ft 451 kts 26°
2026-05-07 19:46 54.05110 48.04474 36925 ft 452 kts 26°
2026-05-07 19:47 54.07917 48.06857 36334 ft 450 kts 26°
2026-05-07 19:47 54.10722 48.09243 35539 ft 453 kts 26°
2026-05-07 19:47 54.13545 48.11646 34864 ft 452 kts 26°
2026-05-07 19:47 54.16352 48.14040 34272 ft 450 kts 26°
2026-05-07 19:48 54.19142 48.16422 33667 ft 447 kts 27°
2026-05-07 19:48 54.21915 48.18793 33042 ft 444 kts 26°
2026-05-07 19:48 54.24661 48.21146 32521 ft 439 kts 26°
2026-05-07 19:48 54.27336 48.23617 31935 ft 436 kts 29°
2026-05-07 19:49 54.29969 48.26164 31387 ft 433 kts 29°
2026-05-07 19:49 54.32584 48.28673 30922 ft 427 kts 29°
2026-05-07 19:49 54.35159 48.31140 30432 ft 423 kts 29°
2026-05-07 19:49 54.37726 48.33599 29901 ft 420 kts 29°
2026-05-07 19:50 54.40257 48.36028 29326 ft 417 kts 29°
2026-05-07 19:50 54.42767 48.38438 28835 ft 412 kts 29°
2026-05-07 19:50 54.45250 48.40826 28336 ft 407 kts 29°
2026-05-07 19:50 54.47711 48.43196 27850 ft 404 kts 29°
2026-05-07 19:51 54.50173 48.45571 27349 ft 407 kts 29°
2026-05-07 19:51 54.52640 48.47953 26874 ft 407 kts 29°
2026-05-07 19:51 54.55069 48.50303 26368 ft 404 kts 29°
2026-05-07 19:51 54.57510 48.52667 25978 ft 399 kts 29°
2026-05-07 19:52 54.59124 48.54232 25835 ft 392 kts 29°
2026-05-07 19:52 54.62293 48.57309 24975 ft 396 kts 29°
2026-05-07 19:52 54.64693 48.59643 24465 ft 395 kts 29°
2026-05-07 19:52 54.66307 48.61214 24149 ft 393 kts 29°
2026-05-07 19:53 54.69445 48.64273 23524 ft 390 kts 29°
2026-05-07 19:53 54.71037 48.65827 23153 ft 388 kts 29°
2026-05-07 19:53 54.73378 48.68115 22635 ft 385 kts 29°
2026-05-07 19:53 54.75698 48.70386 22173 ft 381 kts 29°
2026-05-07 19:54 54.77982 48.72623 21938 ft 371 kts 29°
2026-05-07 19:54 54.80173 48.74773 21970 ft 354 kts 29°
2026-05-07 19:54 54.82284 48.76846 21979 ft 345 kts 29°
2026-05-07 19:54 54.84372 48.78911 21967 ft 345 kts 29°
2026-05-07 19:55 54.86457 48.80974 21963 ft 346 kts 29°
2026-05-07 19:55 54.88548 48.83045 21959 ft 346 kts 29°
2026-05-07 19:55 54.90636 48.85116 21962 ft 346 kts 29°
2026-05-07 19:55 54.92701 48.87165 21695 ft 341 kts 29°
2026-05-07 19:56 54.94770 48.89221 21237 ft 343 kts 28°
2026-05-07 19:56 54.96829 48.91270 20922 ft 340 kts 28°
2026-05-07 19:56 54.98880 48.93314 20559 ft 339 kts 28°
2026-05-07 19:56 55.00919 48.95348 20256 ft 337 kts 28°
2026-05-07 19:57 55.02951 48.97376 19916 ft 335 kts 28°
2026-05-07 19:57 55.04941 48.99366 19611 ft 334 kts 28°
2026-05-07 19:57 55.06950 49.01378 19297 ft 333 kts 28°
2026-05-07 19:57 55.08953 49.03385 19014 ft 331 kts 28°
2026-05-07 19:58 55.10950 49.05388 18732 ft 330 kts 28°
2026-05-07 19:58 55.12938 49.07385 18471 ft 329 kts 28°
2026-05-07 19:58 55.14915 49.09373 18233 ft 328 kts 28°
2026-05-07 19:58 55.16951 49.11116 17932 ft 324 kts 14°
2026-05-07 19:59 55.19144 49.11808 17684 ft 320 kts
2026-05-07 19:59 55.21340 49.11463 17389 ft 316 kts 344°
2026-05-07 19:59 55.23433 49.10340 17086 ft 314 kts 342°
2026-05-07 19:59 55.25523 49.09255 16817 ft 313 kts 342°
2026-05-07 20:00 55.27612 49.08192 16580 ft 311 kts 342°
2026-05-07 20:00 55.29690 49.07148 16369 ft 310 kts 343°
2026-05-07 20:00 55.31763 49.06114 16200 ft 309 kts 343°
2026-05-07 20:00 55.33831 49.05085 16077 ft 308 kts 343°
2026-05-07 20:01 55.35897 49.04058 15890 ft 310 kts 343°
2026-05-07 20:01 55.37956 49.02958 15501 ft 308 kts 335°
2026-05-07 20:01 55.39695 49.00854 15133 ft 304 kts 312°
2026-05-07 20:01 55.40796 48.97706 14651 ft 305 kts 289°
2026-05-07 20:02 55.41067 48.94009 14181 ft 309 kts 266°
2026-05-07 20:02 55.40452 48.90384 13712 ft 313 kts 243°
2026-05-07 20:02 55.39049 48.87452 13177 ft 319 kts 219°
2026-05-07 20:02 55.37064 48.85712 12733 ft 321 kts 195°
2026-05-07 20:03 55.34853 48.85479 12325 ft 321 kts 172°
2026-05-07 20:03 55.32771 48.86779 11935 ft 318 kts 148°
2026-05-07 20:03 55.31164 48.89386 11540 ft 314 kts 123°
2026-05-07 20:03 55.30284 48.92809 11251 ft 305 kts 101°
2026-05-07 20:04 55.30212 48.96467 10874 ft 299 kts 76°
2026-05-07 20:04 55.31010 48.99761 10507 ft 292 kts 52°
2026-05-07 20:04 55.32436 49.02201 10153 ft 284 kts 31°
2026-05-07 20:04 55.34230 49.03540 9719 ft 279 kts 10°
2026-05-07 20:05 55.36147 49.03624 9264 ft 275 kts 349°
2026-05-07 20:05 55.37984 49.02744 8817 ft 272 kts 343°
2026-05-07 20:05 55.39799 49.01818 8373 ft 271 kts 344°
2026-05-07 20:05 55.41605 49.00916 7940 ft 269 kts 344°
2026-05-07 20:06 55.43399 49.00031 7509 ft 267 kts 344°
2026-05-07 20:06 55.45184 48.99157 7079 ft 265 kts 344°
2026-05-07 20:06 55.46958 48.98290 6678 ft 263 kts 344°
2026-05-07 20:06 55.48714 48.97434 6309 ft 261 kts 344°
2026-05-07 20:07 55.50439 48.96589 6056 ft 253 kts 344°
2026-05-07 20:07 55.52115 48.95768 5820 ft 248 kts 344°
2026-05-07 20:07 55.53777 48.94961 5465 ft 248 kts 344°
2026-05-07 20:07 55.55451 48.94151 5099 ft 249 kts 344°
2026-05-07 20:08 55.57127 48.93342 4744 ft 250 kts 344°
2026-05-07 20:08 55.58811 48.92527 4350 ft 251 kts 344°
2026-05-07 20:08 55.60497 48.91711 3986 ft 251 kts 344°
2026-05-07 20:08 55.62188 48.90979 3609 ft 250 kts 354°
2026-05-07 20:09 55.63866 48.91551 3213 ft 248 kts 30°
2026-05-07 20:09 55.65255 48.93235 3029 ft 234 kts 35°
2026-05-07 20:09 55.66546 48.94813 2819 ft 226 kts 35°
2026-05-07 20:10 55.69050 48.97864 2303 ft 210 kts 38°
2026-05-07 20:10 55.69919 48.99815 2051 ft 198 kts 73°
2026-05-07 20:10 55.70035 49.02104 1899 ft 181 kts 102°
2026-05-07 20:10 55.69661 49.04142 1720 ft 170 kts 118°
2026-05-07 20:11 55.69070 49.05827 1683 ft 150 kts 127°
2026-05-07 20:11 55.68466 49.07336 1715 ft 149 kts 127°
2026-05-07 20:11 55.67876 49.08862 1781 ft 150 kts 126°
2026-05-07 20:11 55.67295 49.10381 1794 ft 149 kts 126°
2026-05-07 20:12 55.66718 49.11893 1733 ft 148 kts 126°
2026-05-07 20:12 55.66143 49.13401 1706 ft 148 kts 126°
2026-05-07 20:12 55.65567 49.14909 1655 ft 149 kts 126°
2026-05-07 20:12 55.64989 49.16424 1491 ft 148 kts 125°
2026-05-07 20:13 55.64411 49.17936 1320 ft 148 kts 125°
2026-05-07 20:13 55.63833 49.19453 1121 ft 149 kts 124°
2026-05-07 20:13 55.63282 49.20960 919 ft 146 kts 123°
2026-05-07 20:13 55.62707 49.22431 770 ft 143 kts 123°
2026-05-07 20:14 55.62162 49.23875 593 ft 140 kts 123°
2026-05-07 20:14 55.61598 49.25354 438 ft 150 kts 123°
2026-05-07 20:14 55.61040 49.26801 409 ft 130 kts 123°
2026-05-07 20:14 55.60625 49.27877 410 ft 76 kts 124°
2026-05-07 20:15 55.60413 49.28422 406 ft 21 kts 124°
2026-05-07 20:15 55.60389 49.28552 410 ft 4 kts 62°
2026-05-07 20:15 55.60414 49.28600 410 ft 6 kts 40°
2026-05-07 20:15 55.60457 49.28657 409 ft 9 kts 34°
2026-05-07 20:16 55.60482 49.28687 409 ft 0 kts 34°
2026-05-07 20:17 55.60500 49.28709 409 ft 8 kts 34°
2026-05-07 20:17 55.60570 49.28796 409 ft 14 kts 47°
2026-05-07 20:17 55.60579 49.28963 409 ft 13 kts 94°
2026-05-07 20:17 55.60592 49.29135 407 ft 16 kts 59°
2026-05-07 20:18 55.60688 49.29274 409 ft 19 kts 34°
2026-05-07 20:18 55.60758 49.29359 409 ft 13 kts 34°
2026-05-07 20:18 55.60819 49.29452 409 ft 4 kts 75°
2026-05-07 20:18 55.60809 49.29491 409 ft 7 kts 124°
2026-05-07 20:19 55.60771 49.29589 407 ft 11 kts 112°
2026-05-07 20:19 55.60786 49.29662 408 ft 6 kts 39°
2026-05-07 20:19 55.60811 49.29694 409 ft 0 kts 35°